Regional Weather Roundup
Issued by NWS Midland/Odessa, TX

Skip options and go directly to product.
Home | Oldest Version | Previous Version | Current Version | All | Graphics & Text | Save Text | Print | Product List | Glossary On

Skip product version selection by date and time.   
889
ASUS44 KMAF 012310
RWRMAF
MIDLAND AREA WEATHER ROUNDUP
NATIONAL WEATHER SERVICE MIDLAND TX
600 PM CDT SUN MAY 01 2016

...IN SOUTHWEST TEXAS AND SOUTHEAST NEW MEXICO...

CITY           SKY/WX    TMP DP  RH WIND       PRES   REMARKS
ALPINE         PTSUNNY   54  34  47 NE20      30.12R
ANDREWS        CLOUDY    55  36  47 NE15G21   30.11R
ARTESIA        CLOUDY    48  37  66 N20       30.18S
BIG SPRING     CLOUDY    55  40  58 N15G21    30.11R
CARLSBAD       CLOUDY    51  37  58 N16       30.14S
DRYDEN           N/A     61  41  47 N23G37    29.97R
FORT STOCKTON  CLOUDY    59  36  42 N17G23    30.07S
GUAD PASS      SUNNY     47  34  60 NE31G41   30.08R WCI  38
HOBBS          CLOUDY    50  36  57 N17       30.14S
MARFA          SUNNY     54  35  48 N31       30.01S
MIDLAND AIRPK  CLOUDY    59  37  44 NE13G20   30.09R
MIDLAND INTL   CLOUDY    59  37  44 NE15      30.08R
ODESSA         CLOUDY    59  36  42 NE17      30.09S
PECOS          CLOUDY    59  35  40 N14       30.09S
PRESIDIO       FAIR      79  40  25 N25       29.83R
SEMINOLE       CLOUDY    53  37  53 N14       30.13S
SNYDER           N/A     56  43  61 N10G21    30.09S
WINK           CLOUDY    58  36  43 N17G29    30.08F
$$
...OTHER STATIONS IN TEXAS...

CITY           SKY/WX    TMP DP  RH WIND       PRES   REMARKS
ABILENE        CLOUDY    64  45  49 N18       30.03S
AMARILLO       CLOUDY    42  35  76 N21       30.19R WCI  33
AUSTIN         PTSUNNY   76  59  55 NE18      29.87S
BROWNSVILLE    MOSUNNY   83  74  74 NE13      29.71S
CORPUS CHRISTI CLOUDY    86  74  67 E13       29.74R
DALLAS FTW     MOSUNNY   73  49  42 NE14      29.94S
DEL RIO        RAIN      69  67  93 N3G17     29.83R VSB 1
EL PASO        MOSUNNY   66  32  28 E13       29.98S
HOUSTON INT    PTSUNNY   78  73  84 SE18      29.81R
LUBBOCK        CLOUDY    51  38  60 N15G25    30.13R
SAN ANGELO     CLOUDY    66  47  50 N13       30.00R
SAN ANTONIO    MOSUNNY   78  62  57 NE10      29.86R
WACO           PTSUNNY   76  52  43 NE17      29.91F
WICHITA FALLS  NOT AVBL
$$
...OTHER LOCATIONS IN NEW MEXICO...

CITY           SKY/WX    TMP DP  RH WIND       PRES   REMARKS
ALAMAGORDO     MOSUNNY   64  32  29 NW12G23   30.00R
ALBUQUERQUE    CLOUDY    47  29  49 E29G38    30.11R WCI  38
CANNON AFB     CLOUDY    41  37  85 N18       30.18S WCI  32
CLOVIS         CLOUDY    43  34  70 N18       30.20S WCI  34
HOLLOMAN AFB   SUNNY     64  33  31 N17       29.99R
ROSWELL        CLOUDY    47  38  71 N13       30.18S
RUIDOSO          N/A     34  32  93 SE13      30.19R WCI  25
SANTA FE       CLOUDY    48  32  53 SE14      30.13S
TRUTH OR CONSE CLOUDY    56  40  55 N20G28    30.00S
TUCUMCARI      LGT RAIN  44  39  82 NE14      30.21R WCI  37
$$

USA.gov is the U.S. government's official web portal to all federal, state and local government web resources and services.